Regional Weather Roundup
Issued by NWS

Home | Current Version | Previous Version | Text Only | Print | Product List | Glossary On
Versions: 1 2 3 4 5 6 7 8 9 10 11 12 13 14 15 16 17 18 19 20 21 22 23 24 25 26 27
000
ASUS45 KTFX 230010
RWRMT
MONTANA REGIONAL WEATHER ROUNDUP
NATIONAL WEATHER SERVICE GREAT FALLS MT
500 PM MST WED FEB 22 2017

NOTE: "FAIR" INDICATES FEW OR NO CLOUDS BELOW 12000 FEET WITH NO
SIGNIFICANT WEATHER AND/OR OBSTRUCTIONS TO VISIBILITY.

MTZ001>007-043-230100-
WEST OF THE DIVIDE

CITY           SKY/WX    TMP DP  RH WIND       PRES   REMARKS
KALISPELL      PTSUNNY   38  26  62 NE3       29.93S
MISSOULA       MOSUNNY   35  28  75 W10       29.93S WCI  27
BUTTE          LGT SNOW  29  24  82 NE6       29.84S WCI  23
MULLAN PASS    CLOUDY    24  22  91 NW6       29.86S FOG     WCI  17
ANACONDA         N/A     32  21  64 NW3       29.85F
DEER LODGE       N/A     34  27  75 CALM      29.88S
EUREKA           N/A     36  28  75 CALM      29.96S
HAMILTON         N/A     36  28  75 N12       29.90R WCI  27
LIBBY            N/A     39  25  56 CALM      29.94F
RONAN            N/A     38  22  52 SW1       29.97S
$$

MTZ008-052>055-230100-
SOUTHWEST MONTANA

CITY           SKY/WX    TMP DP  RH WIND       PRES   REMARKS
BOZEMAN        CLOUDY    36  27  69 S8        29.86S WCI  30
DILLON         CLOUDY    33  23  66 NE15      29.81S WCI  23
W YELLOWSTONE  PTCLDY    28  16  59 SW8       29.80F WCI  20
ENNIS          MOCLDY    30  25  80 N5        29.88S HAZE
THREE FORKS      N/A     36 -19   9 S7        29.87S WCI  30
$$

MTZ009-010-012-014-046-048-049-054-230100-
EAST SLOPES AND CENTRAL MONTANA

CITY           SKY/WX    TMP DP  RH WIND       PRES   REMARKS
CUT BANK       MOCLDY    30  26  85 N14       29.92S WCI  19
GREAT FALLS    CLOUDY    35  25  66 N10       29.91R WCI  27
MALMSTROM AFB  CLOUDY    35  28  75 NE10      29.92R WCI  27
HELENA         CLOUDY    39  21  48 W7        29.86S
AUGUSTA        MOCLDY    29  25  85 N17       29.89R WCI  17
BOWMANS CRNR   MOCLDY    31  24  76 NE14      29.87R WCI  21
CHOTEAU          N/A     30  27  86 N9        29.94R WCI  22
CONRAD           N/A     32  29  89 NW7       29.95S WCI  26
POWER            N/A     32  28  83 N12       29.90R WCI  23
RAYNESFORD     FLURRIES  32  28  83 W6        29.90S WCI  27
ULM            MOCLDY    35  26  71 MISG      29.92R
$$

MTZ011-013-016-021-045-047-050-051-230100-
NORTH CENTRAL MONTANA

CITY           SKY/WX    TMP DP  RH WIND       PRES   REMARKS
HAVRE          CLOUDY    35  28  75 E12       29.95R WCI  27
LEWISTOWN      CLOUDY    32  28  85 NE5       29.89R
N BAR RANCH    LGT SNOW  30  28  93 NE3       29.90R
CHINOOK          N/A     36  27  69 E5        29.96S
DENTON         FLURRIES  33  31  91 NE6       29.87S WCI  28
FORT BENTON      N/A     36  30  80 MISG      29.94S
GEYSER         MOCLDY    33  28  80 W7        29.89R WCI  27
GRASS RANGE    LGT SNOW  31  31  99 NE6       29.88R WCI  25
JUDITH GAP     LGT SNOW  27  26  94 N14       29.86S WCI  16
ROY            FLURRIES  30  29  95 MISG      29.90R
STANFORD       FLURRIES  30  28  93 NW10      29.89R WCI  21
WINIFRED       MOCLDY    31  31 100 E8        29.89S WCI  24
$$

MTZ017>020-022>027-061-062-230100-
NORTHEAST MONTANA

CITY           SKY/WX    TMP DP  RH WIND       PRES   REMARKS
GLASGOW        PTCLDY    31  27  85 SW6       29.97R WCI  25
JORDAN           N/A     30  27  88 NE10      29.95R WCI  21
SIDNEY         CLOUDY    31  27  85 N9        29.98R WCI  23
WOLF POINT     CLOUDY    33  26  75 CALM      29.99R
PLENTYWOOD       N/A     34  21  60 CALM      29.96R
POPLAR           N/A     32  27  80 CALM      29.99R
$$

MTZ028>42-056>058-230100-
SOUTHCENTRAL AND SOUTHEAST MONTANA

CITY           SKY/WX    TMP DP  RH WIND       PRES   REMARKS
BAKER          CLOUDY    30  27  88 NW9       29.92R WCI  22
BILLINGS       LGT SNOW  33  32  96 CALM      29.89R VSB 1
LIVINGSTON     CLOUDY    35  23  61 VRB7      29.85R WCI  29
MILES CITY     CLOUDY    34  31  88 NE12      29.93R WCI  25
BIG TIMBER     CLOUDY    34  28  80 NE14      29.89R HAZE    WCI  24
FORSYTH          N/A     36  28  75 NE5       29.93R
HARLOWTON      MOCLDY    31  27  88 N18       29.86R WCI  19
LAUREL           N/A     32  22  67 N2        29.88R VSB 0
$$

REGIONAL REPORTS...DAKOTAS

CITY           SKY/WX    TMP DP  RH WIND       PRES   REMARKS
WILLISTON      CLOUDY    32  26  78 N7        29.97R WCI  26
MINOT          CLEAR     33  25  72 NW9       29.94R WCI  25
DICKINSON      CLOUDY    29  25  85 N9        29.90R WCI  20
BEACH            N/A    N/A N/A N/A MISG        N/A
CROSBY         CLOUDY    32  28  86 NW7       29.98R WCI  26
TIOGA          MOCLDY    30  30 100 N6        29.96R WCI  24
WATFORD CITY   MOCLDY    30  27  86 N6        29.96R WCI  24
BISMARCK       CLOUDY    34  30  85 NE8       29.92R WCI  27
GRAND FORKS    CLOUDY    34  25  69 N10       29.87R WCI  26
FARGO          CLOUDY    34  29  82 N15       29.84R WCI  24
BUFFALO SD       N/A     33  30  88 NE10      29.83R WCI  25
RAPID CITY     CLEAR     39  29  67 N29G39    29.82R WCI  27
$$

REGIONAL REPORTS...WYOMING/IDAHO/WASHINGTON

CITY           SKY/WX    TMP DP  RH WIND       PRES   REMARKS
GILLETTE       PTCLDY    38  29  70 NE13      29.83R WCI  30
SHERIDAN       LGT SNOW  35  30  82 S9        29.86S WCI  28
BUFFALO WY     FLURRIES  32  29  88 N8        29.85S WCI  25
CODY           PTCLDY    33  25  72 N8        29.83S WCI  26
YELLOWSTONE LA   N/A     24  12  60 VRB3      29.80S
IDAHO FALLS    CLOUDY    34  27  75 VRB6      29.83F WCI  29
SALMON         SUNNY     37  27  65 N10       29.81S WCI  30
BOISE          CLOUDY    39  29  67 W13G20    29.88F WCI  31
SPOKANE        MOSUNNY   35  26  69 S5        30.02S
$$

REGIONAL REPORTS...ALBERTA

CITY           SKY/WX    TMP DP  RH WIND       PRES   REMARKS
EDMONTON       PTCLDY    27  16  63 W8        30.03R WCI  18
CALGARY        MOCLDY    28  16  59 NE10      29.98R WCI  19
LETHBRIDGE     FLURRIES  30  28  93 NE12      29.97S WCI  21
MEDICINE HAT   SNOW      28  28 100 N15       29.99R VSB 1/2 WCI  17
WATERTON GATE    N/A     30  25  80 E7          N/A  WCI  23
CARDSTON         N/A     30  27  86 NE6         N/A  WCI  24
MILK RIVER       N/A     30  28  93 N8          N/A  WCI  23
$$

REGIONAL REPORTS...SASKATCHEWAN

CITY           SKY/WX    TMP DP  RH WIND       PRES   REMARKS
SWIFT CURRENT  LGT SNOW  30  28  93 N7        29.94R WCI  23
REGINA         FLURRIES  34  30  86 NW6       29.94R WCI  29
SASKATOON      FLURRIES  25  21  86 NW7       30.03R WCI  17
CYPRESS HILLS    N/A     27  23  86 SW5         N/A
ASSINIBOIA       N/A     28  18  64 NW12        N/A  WCI  18
$$




USA.gov is the U.S. government's official web portal to all federal, state and local government web resources and services.